TimePST,TemperatureF,Dew PointF,Humidity,Sea Level PressureIn,VisibilityMPH,Wind Direction,Wind SpeedMPH,Gust SpeedMPH,PrecipitationIn,Events,Conditions,WindDirDegrees,DateUTC
12:53 AM,54.0,50.0,86,29.84,10.0,SSW,11.5,19.6,N/A,,Clear,200,2012-11-08 08:53:00
1:53 AM,54.0,48.0,80,29.84,10.0,SSW,10.4,21.9,N/A,,Clear,210,2012-11-08 09:53:00
2:53 AM,52.0,46.0,80,29.83,10.0,South,9.2,-,N/A,,Clear,170,2012-11-08 10:53:00
3:53 AM,51.1,41.0,68,29.85,10.0,Calm,Calm,-,N/A,,Clear,0,2012-11-08 11:53:00
4:53 AM,50.0,37.9,63,29.87,10.0,West,8.1,-,N/A,,Clear,280,2012-11-08 12:53:00
5:53 AM,50.0,39.0,66,29.88,10.0,SW,9.2,18.4,N/A,,Clear,220,2012-11-08 13:53:00
6:53 AM,50.0,37.9,63,29.90,10.0,SW,13.8,-,N/A,,Clear,230,2012-11-08 14:53:00
7:53 AM,52.0,37.9,59,29.92,10.0,SSW,11.5,-,N/A,,Clear,210,2012-11-08 15:53:00
8:53 AM,54.0,37.0,53,29.94,10.0,WSW,9.2,-,N/A,,Clear,250,2012-11-08 16:53:00
9:53 AM,57.0,37.0,47,29.94,10.0,SW,10.4,18.4,N/A,,Clear,230,2012-11-08 17:53:00
10:53 AM,59.0,39.0,48,29.93,10.0,SW,20.7,24.2,N/A,,Clear,230,2012-11-08 18:53:00
11:53 AM,57.0,45.0,64,29.93,9.0,WSW,15.0,-,0.00,Rain,Light Rain,240,2012-11-08 19:53:00
12:53 PM,52.0,48.9,89,29.91,2.5,WSW,5.8,-,0.03,Rain,Rain,250,2012-11-08 20:53:00
1:05 PM,51.8,48.2,88,29.91,7.0,SW,5.8,-,0.00,Rain,Light Rain,220,2012-11-08 21:05:00
1:53 PM,52.0,43.0,71,29.88,10.0,West,4.6,-,0.01,,Overcast,260,2012-11-08 21:53:00
2:53 PM,55.0,46.0,72,29.88,10.0,SSW,5.8,-,N/A,,Scattered Clouds,210,2012-11-08 22:53:00
3:18 PM,55.4,48.2,77,29.88,10.0,South,6.9,-,N/A,,Mostly Cloudy,170,2012-11-08 23:18:00
3:50 PM,51.8,46.4,82,29.87,8.0,SW,10.4,-,0.00,Rain,Light Rain,230,2012-11-08 23:50:00
3:53 PM,52.0,48.0,86,29.88,6.0,SSW,6.9,-,0.01,Rain,Light Rain,210,2012-11-08 23:53:00
4:53 PM,52.0,44.1,74,29.87,10.0,South,8.1,-,0.00,,Scattered Clouds,190,2012-11-09 00:53:00
5:53 PM,51.1,41.0,68,29.88,10.0,SW,6.9,-,N/A,,Clear,220,2012-11-09 01:53:00
6:53 PM,48.0,41.0,77,29.88,10.0,SW,6.9,-,N/A,,Clear,220,2012-11-09 02:53:00
7:53 PM,48.9,39.0,69,29.88,10.0,SW,8.1,16.1,N/A,,Clear,220,2012-11-09 03:53:00
8:53 PM,46.9,37.9,71,29.89,10.0,Variable,4.6,-,N/A,,Clear,0,2012-11-09 04:53:00
9:53 PM,44.1,37.0,76,29.91,10.0,Calm,Calm,-,N/A,,Clear,0,2012-11-09 05:53:00
10:53 PM,45.0,37.0,74,29.91,10.0,South,5.8,-,N/A,,Clear,170,2012-11-09 06:53:00
11:53 PM,45.0,37.0,74,29.92,10.0,South,6.9,-,N/A,,Clear,170,2012-11-09 07:53:00